Date,TemperatureHighF,TemperatureAvgF,TemperatureLowF,DewpointHighF,DewpointAvgF,DewpointLowF,HumidityHigh,HumidityAvg,HumidityLow,PressureMaxIn,PressureMinIn,WindSpeedMaxMPH,WindSpeedAvgMPH,GustSpeedMaxMPH,PrecipitationSumIn
2013-9-1,84.0,72.9,66.0,71.0,66.8,-99.9,97,84,64,0.00,40.00,5,3,12,0.00
2013-9-2,70.0,68.0,67.0,68.0,66.9,66.0,98,97,92,0.00,40.00,3,2,8,3.66
2013-9-3,79.0,71.0,66.0,71.0,67.5,61.0,98,90,73,0.00,40.00,5,2,13,0.01
2013-9-4,83.0,70.1,59.0,61.0,56.8,52.0,93,67,35,0.00,40.00,8,4,17,0.01
2013-9-5,67.0,61.2,49.0,60.0,54.4,43.0,94,80,58,0.00,40.00,4,2,11,0.03
2013-9-6,72.0,57.0,43.0,48.0,42.2,38.0,90,63,32,0.00,40.00,5,3,13,0.03
2013-9-7,81.0,64.4,50.0,57.0,49.2,44.0,91,61,33,0.00,40.00,5,3,13,0.01
2013-9-8,74.0,63.1,51.0,58.0,46.8,-99.9,84,59,35,0.00,40.00,8,4,22,0.01
2013-9-9,71.0,56.6,42.0,53.0,43.4,39.0,94,65,36,0.00,40.00,5,3,15,0.00
2013-9-10,74.0,63.8,55.0,67.0,58.4,48.0,95,83,70,0.00,40.00,5,3,14,0.01
2013-9-11,96.0,74.3,63.0,74.0,66.9,61.0,98,81,46,0.00,40.00,5,2,31,0.04
2013-9-12,77.0,67.9,63.0,70.0,65.9,62.0,98,93,78,0.00,40.00,4,2,31,1.43
2013-9-13,70.0,63.9,58.0,67.0,62.8,57.0,98,97,88,0.00,40.00,6,2,18,2.89
2013-9-14,73.0,62.1,56.0,58.0,55.0,50.0,98,80,53,0.00,40.00,5,3,13,0.10
2013-9-15,73.0,56.3,47.0,53.0,47.4,-99.9,97,78,39,0.00,40.00,5,2,13,0.02
2013-9-16,67.0,58.2,46.0,55.0,49.7,33.0,90,74,58,0.00,40.00,6,3,15,0.01
2013-9-17,65.0,51.7,39.0,49.0,39.7,33.0,93,66,38,0.00,40.00,6,3,15,0.01
2013-9-18,56.0,46.1,43.0,49.0,43.5,41.0,94,91,70,0.00,40.00,3,2,6,0.00
2013-9-19,73.0,58.6,45.0,54.0,49.1,44.0,97,75,43,0.00,40.00,5,2,10,0.00
2013-9-20,71.0,57.8,48.0,57.0,51.6,47.0,98,83,47,0.00,40.00,4,2,7,0.00
2013-9-21,70.0,60.1,49.0,62.0,56.9,48.0,98,91,74,0.00,40.00,6,3,15,0.00
2013-9-22,74.0,64.1,52.0,64.0,55.0,-99.9,97,77,43,0.00,40.00,6,4,16,0.45
2013-9-23,65.0,52.8,43.0,44.0,42.0,40.0,94,69,44,0.00,40.00,6,3,17,0.01
2013-9-24,64.0,50.3,39.0,46.0,41.8,38.0,95,75,42,0.00,40.00,6,3,15,0.00
2013-9-25,62.0,52.5,43.0,49.0,45.1,42.0,97,78,52,0.00,40.00,5,2,11,0.00
2013-9-26,65.0,56.0,46.0,51.0,47.6,44.0,95,75,51,0.00,40.00,5,3,10,0.00
2013-9-27,69.0,59.2,53.0,53.0,50.0,46.0,96,73,46,0.00,40.00,5,3,9,0.00
2013-9-28,70.0,57.9,49.0,55.0,51.4,48.0,97,81,55,0.00,40.00,5,2,10,0.00
2013-9-29,62.0,51.2,44.0,56.0,47.4,-99.9,98,90,75,0.00,40.00,5,2,10,0.00
2013-9-30,61.0,50.7,40.0,54.0,47.5,39.0,98,90,76,0.00,40.00,4,2,8,0.01